TimeCDT,TemperatureF,Dew PointF,Humidity,Sea Level PressureIn,VisibilityMPH,Wind Direction,Wind SpeedMPH,Gust SpeedMPH,PrecipitationIn,Events,Conditions,WindDirDegrees,DateUTC
12:13 AM,50.0,30.2,47,29.88,10.0,South,6.9,-,N/A,,Clear,180,2012-10-03 05:13:00
12:33 AM,50.0,28.4,43,29.88,10.0,South,5.8,-,N/A,,Clear,180,2012-10-03 05:33:00
12:54 AM,48.2,30.2,50,29.88,10.0,South,4.6,-,N/A,,Clear,170,2012-10-03 05:54:00
1:13 AM,50.0,28.4,43,29.89,10.0,South,4.6,-,N/A,,Clear,180,2012-10-03 06:13:00
1:33 AM,50.0,28.4,43,29.88,10.0,South,5.8,-,N/A,,Clear,180,2012-10-03 06:33:00
1:54 AM,46.4,28.4,50,29.89,10.0,South,5.8,-,N/A,,Clear,180,2012-10-03 06:54:00
2:13 AM,46.4,30.2,53,29.89,10.0,South,5.8,-,N/A,,Clear,180,2012-10-03 07:13:00
2:33 AM,46.4,28.4,50,29.89,10.0,South,6.9,-,N/A,,Clear,180,2012-10-03 07:33:00
2:54 AM,46.4,30.2,53,29.89,10.0,South,5.8,-,N/A,,Clear,190,2012-10-03 07:54:00
3:13 AM,46.4,30.2,53,29.88,10.0,South,6.9,-,N/A,,Clear,180,2012-10-03 08:13:00
3:33 AM,46.4,32.0,57,29.88,10.0,South,8.1,-,N/A,,Clear,190,2012-10-03 08:33:00
3:54 AM,48.2,32.0,54,29.88,10.0,South,9.2,-,N/A,,Clear,180,2012-10-03 08:54:00
4:13 AM,44.6,32.0,61,29.88,10.0,South,8.1,-,N/A,,Clear,190,2012-10-03 09:13:00
4:34 AM,44.6,30.2,57,29.88,10.0,South,8.1,-,N/A,,Clear,190,2012-10-03 09:34:00
4:53 AM,44.6,30.2,57,29.88,10.0,South,6.9,-,N/A,,Clear,190,2012-10-03 09:53:00
5:13 AM,44.6,32.0,61,29.89,10.0,South,5.8,-,N/A,,Clear,190,2012-10-03 10:13:00
5:34 AM,44.6,32.0,61,29.89,10.0,South,6.9,-,N/A,,Clear,190,2012-10-03 10:34:00
5:53 AM,42.8,32.0,66,29.90,10.0,South,6.9,-,N/A,,Clear,190,2012-10-03 10:53:00
6:13 AM,42.8,32.0,66,29.90,10.0,South,6.9,-,N/A,,Clear,190,2012-10-03 11:13:00
6:34 AM,44.6,32.0,61,29.90,10.0,South,8.1,-,N/A,,Clear,190,2012-10-03 11:34:00
6:53 AM,44.6,32.0,61,29.91,10.0,South,8.1,-,N/A,,Clear,190,2012-10-03 11:53:00
7:14 AM,44.6,32.0,61,29.90,10.0,South,8.1,-,N/A,,Clear,190,2012-10-03 12:14:00
7:33 AM,44.6,32.0,61,29.90,10.0,South,8.1,-,N/A,,Clear,180,2012-10-03 12:33:00
7:54 AM,46.4,32.0,57,29.90,10.0,South,8.1,-,N/A,,Clear,180,2012-10-03 12:54:00
8:14 AM,50.0,32.0,50,29.90,10.0,South,8.1,-,N/A,,Clear,180,2012-10-03 13:14:00
8:33 AM,51.8,32.0,47,29.90,10.0,South,8.1,-,N/A,,Clear,190,2012-10-03 13:33:00
8:54 AM,53.6,32.0,44,29.89,10.0,South,9.2,-,N/A,,Clear,190,2012-10-03 13:54:00
9:14 AM,53.6,32.0,44,29.90,10.0,South,8.1,-,N/A,,Clear,180,2012-10-03 14:14:00
9:32 AM,55.4,32.0,41,29.90,10.0,South,6.9,-,N/A,,Clear,180,2012-10-03 14:32:00
9:54 AM,60.8,32.0,34,29.90,10.0,South,5.8,-,N/A,,Clear,180,2012-10-03 14:54:00
10:13 AM,62.6,32.0,32,29.90,10.0,South,8.1,-,N/A,,Clear,190,2012-10-03 15:13:00
10:33 AM,68.0,30.2,24,29.90,10.0,South,8.1,-,N/A,,Clear,180,2012-10-03 15:33:00
10:54 AM,69.8,26.6,20,29.89,10.0,South,12.7,-,N/A,,Clear,190,2012-10-03 15:54:00
11:13 AM,69.8,26.6,20,29.89,10.0,South,12.7,-,N/A,,Clear,180,2012-10-03 16:13:00
11:33 AM,71.6,23.0,16,29.89,10.0,SSW,15.0,21.9,N/A,,Clear,200,2012-10-03 16:33:00
11:54 AM,71.6,23.0,16,29.88,10.0,SSE,12.7,21.9,N/A,,Clear,160,2012-10-03 16:54:00
12:13 PM,73.4,23.0,15,29.87,10.0,South,15.0,20.7,N/A,,Clear,180,2012-10-03 17:13:00
12:53 PM,73.4,23.0,15,29.86,10.0,South,17.3,24.2,N/A,,Clear,180,2012-10-03 17:53:00
1:13 PM,73.4,21.2,14,29.85,10.0,SSE,15.0,25.3,N/A,,Clear,160,2012-10-03 18:13:00
1:34 PM,73.4,21.2,14,29.84,10.0,South,18.4,26.5,N/A,,Clear,190,2012-10-03 18:34:00
1:53 PM,75.2,23.0,14,29.83,10.0,SSE,17.3,26.5,N/A,,Clear,160,2012-10-03 18:53:00
2:08 PM,75.2,21.2,13,29.82,10.0,South,16.1,24.2,N/A,,Clear,180,2012-10-03 19:08:00
2:09 PM,75.2,21.2,13,29.82,10.0,South,17.3,24.2,N/A,,Clear,180,2012-10-03 19:09:00
2:54 PM,77.0,21.2,12,29.81,10.0,SSE,17.3,26.5,N/A,,Clear,160,2012-10-03 19:54:00
3:13 PM,77.0,19.4,12,29.81,10.0,SSE,19.6,27.6,N/A,,Clear,160,2012-10-03 20:13:00
3:33 PM,77.0,17.6,11,29.81,10.0,South,18.4,24.2,N/A,,Clear,170,2012-10-03 20:33:00
3:54 PM,77.0,14.0,9,29.81,10.0,SSE,17.3,28.8,N/A,,Clear,150,2012-10-03 20:54:00
4:13 PM,77.0,15.8,10,29.81,10.0,South,16.1,24.2,N/A,,Clear,170,2012-10-03 21:13:00
4:33 PM,77.0,21.2,12,29.80,10.0,South,17.3,25.3,N/A,,Clear,170,2012-10-03 21:33:00
4:54 PM,75.2,23.0,14,29.80,10.0,South,15.0,21.9,N/A,,Clear,170,2012-10-03 21:54:00
5:13 PM,77.0,23.0,13,29.80,10.0,SSE,16.1,24.2,N/A,,Clear,160,2012-10-03 22:13:00
5:53 PM,73.4,24.8,16,29.80,10.0,SSE,12.7,20.7,N/A,,Clear,160,2012-10-03 22:53:00
6:13 PM,73.4,24.8,16,29.82,10.0,South,12.7,-,N/A,,Clear,170,2012-10-03 23:13:00
6:34 PM,71.6,26.6,19,29.82,10.0,SSE,11.5,17.3,N/A,,Clear,160,2012-10-03 23:34:00
6:53 PM,71.6,26.6,19,29.83,10.0,SSE,9.2,-,N/A,,Clear,160,2012-10-03 23:53:00
7:13 PM,69.8,26.6,20,29.83,10.0,SSE,10.4,-,N/A,,Clear,160,2012-10-04 00:13:00
7:34 PM,68.0,28.4,23,29.83,10.0,SSE,8.1,-,N/A,,Clear,150,2012-10-04 00:34:00
8:13 PM,68.0,28.4,23,29.83,10.0,SSE,8.1,-,N/A,,Clear,150,2012-10-04 01:13:00
8:34 PM,66.2,30.2,26,29.83,10.0,SSE,10.4,-,N/A,,Clear,150,2012-10-04 01:34:00
8:53 PM,66.2,30.2,26,29.83,10.0,SSE,10.4,-,N/A,,Clear,150,2012-10-04 01:53:00
9:13 PM,66.2,30.2,26,29.83,10.0,SSE,11.5,-,N/A,,Clear,160,2012-10-04 02:13:00
9:34 PM,66.2,30.2,26,29.83,10.0,SSE,12.7,-,N/A,,Clear,160,2012-10-04 02:34:00
9:53 PM,64.4,30.2,28,29.83,10.0,South,13.8,-,N/A,,Scattered Clouds,170,2012-10-04 02:53:00
10:13 PM,64.4,30.2,28,29.83,10.0,South,12.7,-,N/A,,Scattered Clouds,170,2012-10-04 03:13:00
10:34 PM,64.4,32.0,30,29.83,10.0,SSE,12.7,-,N/A,,Clear,160,2012-10-04 03:34:00
10:53 PM,64.4,30.2,28,29.83,10.0,South,13.8,-,N/A,,Clear,170,2012-10-04 03:53:00
11:13 PM,64.4,30.2,28,29.83,10.0,South,15.0,-,N/A,,Clear,180,2012-10-04 04:13:00
11:34 PM,62.6,32.0,32,29.83,10.0,South,13.8,-,N/A,,Clear,190,2012-10-04 04:34:00
11:53 PM,60.8,32.0,34,29.82,10.0,South,13.8,18.4,N/A,,Clear,180,2012-10-04 04:53:00